Location: Kailua
(21.4020°N, 157.7390°W)
Time: 05:00:59
(UTC-10:00)

Daily predictions for brighter satellites

Satellite Brightness Start Highest point End
(mag) Time Altitude Azimuth Time Altitude Azimuth Time Altitude Azimuth
CZ-4C R/B 4.4 00:53:51 10° N 00:58:50 29° NE 00:58:50 29° NE
Cosmos 2278 Rocket 3.9 02:24:25 29° NE 02:24:25 29° NE 02:27:22 10° NNE
Resurs 1-4 Rocket 3.7 02:36:32 10° NNE 02:39:53 30° ENE 02:39:53 30° ENE
Delta 2 Rocket 4.5 02:48:15 59° NE 02:48:15 59° NE 02:53:38 10° E
USA 234 4.3 02:41:48 10° ESE 02:47:50 42° NE 02:53:53 10° NNW
ATLAS 2A CENTAUR R/B 3.5 02:48:05 52° NW 02:50:05 72° NNE 03:24:37 10° E
ARIANE 5 R/B 3.9 02:46:26 10° NNE 02:49:14 34° NNE 02:49:14 34° NNE
Okean O Rocket 3.7 03:04:10 10° NE 03:07:03 21° E 03:07:03 21° E
CENTAUR R/B 4.0 03:03:23 10° N 03:11:05 45° ENE 03:18:55 10° SE
Cosmos 1455 Rocket 4.5 03:13:21 36° NE 03:13:21 36° NE 03:16:18 10° NNE
Atlas Centaur 2 4.1 03:17:46 30° SSE 03:18:21 30° SE 03:25:30 10° E
SL-16 R/B 2.9 03:16:58 38° SE 03:19:16 60° ENE 03:25:23 10° N
Cosmos 489 Rocket 4.3 03:14:33 10° NNW 03:20:38 86° NNW 03:20:38 86° NNW
Cosmos 1140 Rocket 4.2 03:16:34 10° N 03:21:31 49° ENE 03:22:18 45° ESE
Skynet4D Del rocket 4.2 03:23:26 45° NNW 03:24:01 47° N 03:29:18 10° ENE
Hubble Space Telescope 3.5 03:28:42 11° ESE 03:28:42 11° ESE 03:28:53 10° ESE
ASC 2 Rocket 3.8 03:28:49 50° NE 03:28:49 50° NE 03:31:57 10° ENE
Meteor 1-19 Rocket 4.2 03:22:19 10° N 03:28:10 88° E 03:28:19 85° SSE
Cosmos 1605 Rocket 4.4 03:29:18 45° NW 03:29:18 45° NW 03:34:19 10° N
Meteor 2-15 Rocket 4.3 03:27:08 10° N 03:33:17 87° W 03:34:05 70° S
Cosmos 724 4.2 03:29:53 10° NNW 03:36:04 78° WSW 03:36:41 70° SSW
CZ-2D R/B 2.5 03:32:14 10° N 03:37:03 52° NW 03:37:03 52° NW
Cosmos 2123 Rocket 4.1 03:37:50 10° NNW 03:43:50 52° W 03:43:50 52° W
Tiangong 1 3.7 03:48:10 16° E 03:48:10 16° E 03:49:04 10° ESE
OTV 4 3.0 03:49:30 21° ENE 03:49:30 21° ENE 03:50:57 10° E
Cosmos 1315 Rocket 4.0 03:53:01 34° NNW 03:53:01 34° NNW 03:55:36 10° N
SME Rocket 3.3 03:54:08 52° NNW 03:54:08 52° NNW 03:57:00 10° NNW
UNK 4.1 03:57:50 49° WNW 03:57:50 49° WNW 04:01:37 10° NNW
PAYLOAD B 4.2 03:55:33 10° NNE 04:01:10 86° ESE 04:03:28 37° S
CZ-4B R/B 3.4 03:57:40 10° NNE 04:02:08 64° E 04:03:31 41° SSE
Cosmos 2285 Rocket 4.4 04:00:12 24° S 04:04:02 61° ESE 04:10:14 10° NNE
Cosmos 2297 4.3 04:04:32 35° W 04:05:03 36° WNW 04:10:14 10° N
Cosmos 2173 Rocket 3.8 04:03:03 42° SSW 04:05:09 69° W 04:11:14 10° N
Fermi 4.5 04:04:44 39° NW 04:05:38 47° N 04:09:35 10° ENE
Meteor 1-23 Rocket 4.2 04:00:32 10° NNW 04:06:04 57° W 04:07:31 43° SW
Cosmos 2278 Rocket 4.0 04:06:17 16° WNW 04:06:17 16° WNW 04:09:28 10° NNW
Cosmos 1975 2.6 04:06:57 75° SW 04:07:13 81° W 04:11:13 10° N
Cosmos 1892 Rocket 4.5 04:06:52 10° NNW 04:09:51 32° WNW 04:09:51 32° WNW
OAO 2 Rocket 3.7 04:11:51 42° SSW 04:11:51 42° SSW 04:16:12 10° SE
Cosmos 1802 Rocket 3.9 04:09:50 34° SSW 04:12:39 69° W 04:18:44 10° N
BREEZE-M DEB (TANK) 4.5 04:06:26 20° SSW 04:13:15 47° SE 04:17:42 10° ENE
Okean 2 3.9 04:11:36 10° NNW 04:15:02 41° WNW 04:15:02 41° WNW
CZ-4B DEB 4.1 04:10:24 10° N 04:15:58 80° WNW 04:18:56 29° SSW
Cosmos 1743 4.5 04:13:26 10° SSE 04:16:47 30° E 04:20:09 10° NNE
Meteor 1-12 Rocket 4.4 04:16:20 34° SW 04:18:42 57° W 04:24:26 10° N
Yuri Rocket 4.4 04:13:58 12° WNW 04:18:53 41° N 04:23:08 10° ENE
ATLAS 5 CENTAUR R/B 3.4 04:12:53 10° NNW 04:18:56 50° ENE 04:25:14 10° SE
Cosmos 614 Rocket 3.9 04:14:45 10° NNW 04:19:48 61° WSW 04:23:31 18° S
PSLV R/B 4.4 04:19:38 30° NW 04:19:55 31° NW 04:22:57 10° NNE
Cosmos 1459 Rocket 4.3 04:18:26 32° SW 04:20:51 47° W 04:26:55 10° N
Resurs 1-4 Rocket 3.7 04:17:28 10° NNW 04:20:51 17° WNW 04:20:58 17° WNW
Cosmos 2100 Rocket 4.5 04:21:59 31° WSW 04:24:02 40° W 04:29:52 10° NNW
Cosmos 1500 3.1 04:23:05 33° S 04:24:44 88° E 04:28:38 10° N
Sakura Rocket 4.1 04:23:12 31° WSW 04:25:26 46° SSW 04:32:24 10° SE
USA 234 3.7 04:24:52 10° S 04:30:43 35° SW 04:36:33 10° WNW
CZ-4B R/B 3.6 04:27:33 10° N 04:32:57 46° WNW 04:35:56 24° SW
Okean-O 2.7 04:28:31 10° NNE 04:32:57 79° ESE 04:36:33 15° S
SL-08 R/B 4.5 04:29:09 18° SSW 04:33:53 67° W 04:40:08 10° N
Thor Agena Rocket 3.5 04:29:55 10° SSE 04:35:08 87° ENE 04:40:19 10° NNW
Cosmos 2082 Rocket 3.0 04:29:49 10° N 04:35:24 55° ENE 04:40:56 10° SSE
GPS 2-15 Rocket1 3.1 04:37:22 24° W 04:40:08 69° S 04:44:58 10° ESE
Cosmos 1602 Rocket 3.7 04:37:41 10° NNW 04:41:54 51° W 04:45:37 13° SSW
Okean O Rocket 3.1 04:40:32 10° NNW 04:43:38 19° WNW 04:44:30 18° W
ADEOS II 2.4 04:39:56 10° NNE 04:45:10 68° E 04:50:23 10° S
Delta 2 Rocket 3.9 04:39:34 10° WNW 04:46:05 62° SSW 04:52:00 10° ESE
CZ-2C R/B 4.4 04:48:17 12° SSW 04:52:15 36° W 04:56:36 10° NNW
Cosmos 2084 3.4 04:51:50 20° SW 04:54:20 56° WNW 04:58:08 10° NNE
Timation 2 Rocket 4.1 04:50:13 10° NNW 04:55:57 47° WSW 05:01:37 10° S
Tsikada Rocket 4.1 04:53:07 10° N 04:59:18 83° E 05:05:32 10° S
Cosmos 1626 Rocket 4.4 04:56:15 10° NNW 05:00:03 29° W 05:03:53 10° SSW
Ariane Rocket 4.2 04:56:16 10° NNE 05:01:03 42° E 05:05:49 10° S
Cosmos 1066 Rocket 4.2 04:56:08 10° N 05:01:34 85° E 05:06:55 10° S
CENTAUR R/B 3.8 04:54:40 10° NW 05:01:36 31° WSW 05:08:34 10° SSW
SL-16 R/B 4.1 05:02:04 13° WSW 05:03:00 13° W 05:05:47 10° WNW
Hubble Space Telescope 2.3 05:04:12 15° WSW 05:05:45 18° SSW 05:08:36 10° SSE
Meteor 1-31 Rocket 3.0 05:03:35 10° NNE 05:07:32 73° E 05:11:28 10° S
Atlas Centaur 2 3.2 05:00:25 14° WSW 05:08:07 80° SSE 05:16:09 10° ENE
PSLV R/B 4.1 05:04:17 10° N 05:08:11 39° WNW 05:12:05 10° SW
GPS 2-18 Rocket1 3.8 05:06:00 14° SW 05:08:49 37° SSE 05:12:18 10° E
CZ-3C R/B 2.0 05:07:37 11° W 05:10:49 63° S 05:26:00 10° ESE
ADEOS Rocket 2.9 05:06:00 10° N 05:11:38 85° WNW 05:17:46 10° SSW
USA 215 3.6 05:05:42 10° NE 05:12:09 63° SE 05:18:35 10° SSW
SL-8 R/B 3.8 05:08:56 12° SW 05:13:17 67° NW 05:18:01 10° NE
Skynet4D Del rocket 3.9 05:11:26 10° WNW 05:16:50 70° NNE 05:22:45 10° E
Palapa B4 Rocket 3.7 05:13:46 10° W 05:18:21 73° S 05:25:37 10° E
Cosmos 1833 Rocket 2.6 05:13:32 10° NNW 05:19:07 72° WSW 05:24:41 10° S
Tiangong 1 2.9 05:21:04 10° WSW 05:22:38 13° SW 05:24:11 10° SSW
Cosmos 1606 Rocket 4.4 05:19:08 10° SW 05:23:04 31° W 05:26:59 10° NNW
Cosmos 2228 3.1 05:19:11 10° S 05:23:34 90° NNE 05:27:59 10° N
OTV 4 1.8 05:22:21 10° W 05:24:37 20° SW 05:26:52 10° SSE
Shi Jian 4 4.0 05:26:31 10° WNW 05:28:35 39° NNE 05:30:21 10° E
ASC 2 Rocket 3.1 05:25:44 10° WNW 05:29:53 71° N 05:34:01 10° E
DNEPR-1 R/B 4.4 05:27:25 10° NNW 05:32:12 59° ENE 05:36:22 10° SE
